Location: Αθήνα
(37.9839°N, 23.7283°E)
Time: 21:42:31
(UTC+03:00)

ISS - Pass Details

Date: 21 June 2024
Orbit: 410 x 424 km, 51.6° (Epoch: 12 July)

Event Time Altitude Azimuth Distance (km) Brightness Sun altitude
Exits shadow 04:44:20 14° 177° (S) 1,278 -1.7 -13.1°
Maximum altitude 04:46:21 22° 131° (SE) 944 -1.9 -12.8°
Drops below altitude 10° 04:49:02 10° 78° (ENE) 1,490 0.0 -12.4°
Sets 04:51:25 0° 63° (ENE) 2,361 1.7 -12.1°
